Voltar ao catálogo

ONEWEB-0639

AtivoComunicaçõesPO
NORAD 55803·PAYLOAD·🇬🇧 United Kingdom

Lançado Mar 9, 2023 de Cape Canaveral Space Force Station

Loading…

Próximas Passagens (próximas 24 horas)

TLE

AtualizadoSource: CelesTrak SupGP

Época: Sep 14, 2026, 07:00 UTC

1 55803C 23029H   26257.29218009 -.00003345  00000+0 -83660-2 0  2578
2 55803  87.9103 287.2240 0002301  63.4441  50.1386 13.19727378    16

Acompanhe ONEWEB-0639 em tempo real com AllMySat

Download on the App Store